SCP
0 0 0 0 0 0 0 0 0 0 0 0 0 0 0 0 0 0 0 0 0 0 0 0 0 0 0 0 0 0 0 0 0 0 0 0 0 0
0 0 0 0 0 0 0 0 0 0 0 0 0 0 0 0 0 0 0 0 0 0 0 0 0 0 0 0 0 0 0 0 0 0 0 0 0 0
0 0 0 0 0 0 0 0 0 0 0 0 0 0 0 0 0 0 0 0 0 0 0 0 0 0 0 0 0 0 0 0 0 0 0 0 0 0
0 0 0 0 0 0 0 0 0 0 0 0 0 0 0 0 0 0 0 0 0 0 0 0 0 0 0 0 0 0 0 0 0 0 0 0 0 0
0 0 0 0 0 0 0 0 0 0 0 0 0 0 0 0 0 0 0 0 0 0 0 0 0 0 0 0 0 0 0 0 0 0 0 0 0 0
0 0 0 0 0 0 0 0 0 0 0 0 0 0 0 0 0 0 0 0 0 0 0 0 0 0 0 0 0 0 0 0 0 0 0 0 0 0
0 0 0 0 0 0 0 0 0 0 0 0 0 0 0 0 0 0 0 0 0 0 0 0 0 0 0 0 0 0 0 0 0 0 0 0 0 0
0 1 0 1 1 0 0 0 0 0 0 0 0 0 0 0 0 0 0 0 0 0 0 0 0 0 0 0 0 0 0 0 0 0 0 0 0 0
1 0 0 1 0 0 0 0 0 0 0 0 0 0 0 0 0 0 0 0 0 0 0 0 0 0 0 0 0 0 0 0 0 0 0 0 -0 -0
1 1 0 0 0 0 0 0 0 0 0 0 0 0 0 0 0 0 0 0 0 0 0 0 0 0 0 0 0 0 0 0 0 0 0 0 0 -0
0 0 0 0 0 0 0 0 0 0 0 0 0 0 0 0 0 0 0 0 0 0 0 0 0 0 0 0 0 0 0 0 0 0 0 0 0 0
0 0 0 0 0 0 0 0 0 0 0 0 0 0 0 0 0 0 0 0 0 0 0 0 0 0 -0 0 0 0 0 0 0 0 0 0 0 0
0 0 0 0 0 0 0 0 0 0 0 0 0 0 0 0 0 0 0 0 0 0 0 0 0 0 0 0 0 0 0 0 0 0 0 0 0 0
0 0 0 0 0 0 0 0 0 0 0 0 0 0 0 0 0 0 0 0 0 0 0 0 0 0 0 0 0 0 0 0 0 0 0 0 0 0
0 0 0 0 0 0 0 0 0 0 0 0 0 0 0 0 0 0 0 0 0 0 0 0 0 0 0 0 0 0 0 0 0 0 0 0 0 0
0 0 0 0 0 0 0 0 0 0 0 0 0 0 0 0 0 0 0 0 0 0 0 0 0 0 0 0 0 0 0 0 0 0 0 0 0 0
0 0 0 0 0 0 0 0 0 0 0 0 0 0 0 0 0 0 0 0 0 0 0 0 0 0 0 0 0 0 0 0 0 0 -0 -0 0 0
0 0 0 0 0 0 0 0 0 0 0 0 0 0 0 0 0 0 0 0 0 0 0 0 0 0 0 0 0 0 0 0 0 0 0 -0 0 0
0 0 0 0 0 0 0 0 0 0 0 0 0 0 0 0 0 0 0 0 0 0 0 0 0 0 0 0 0 0 0 0 0 0 -0 0 0 0
0 0 0 0 0 0 0 0 0 0 0 0 0 0 0 0 0 0 0 0 0 0 0 0 0 0 0 0 0 0 0 0 0 -0 -0 -0 0 -0
0 0 0 0 0 0 0 0 0 0 0 0 0 0 0 0 0 0 0 0 0 0 0 0 0 0 0 0 0 0 0 0 0 -0 -0 -0 0 0
0 0 0 0 0 0 0 0 0 0 0 0 0 0 0 0 0 0 0 0 0 0 0 0 0 0 0 0 -0 0 0 0 0 -0 -0 -0 0 -0
0 0 0 0 0 0 0 0 0 0 0 0 0 0 0 0 0 0 0 0 0 0 0 0 0 0 0 0 0 0 -0 0 -0 -0 -0 -0 -0 -0
Wind_Speed_500mb
22 27 38 28 27 20 17 23 17 16 14 10 11 10 16 17 21 27 29 38 47 46 48 39 32 32 35 36 36 37 39 44 46 48 48 49 49 48
23 22 31 33 34 21 18 19 17 19 24 16 19 19 19 24 32 40 40 41 44 41 40 40 40 41 44 45 41 42 41 38 40 46 51 54 54 53
31 28 28 32 39 32 27 21 20 24 27 22 22 28 34 32 33 30 34 40 44 43 40 36 42 49 53 53 52 46 44 44 47 44 44 49 53 54
37 31 37 37 34 29 37 35 28 21 25 29 34 39 34 31 41 39 36 40 45 46 45 42 48 46 49 51 52 54 57 59 51 52 48 48 48 48
40 40 35 33 41 36 34 34 34 29 32 38 45 41 48 47 38 42 44 43 51 41 32 45 53 53 53 56 54 50 53 53 54 56 60 64 55 53
48 46 41 36 34 37 38 34 32 35 40 45 41 49 47 48 50 43 42 43 52 55 62 57 52 52 56 50 46 50 55 61 63 65 73 67 58 58
49 49 46 43 40 41 41 37 40 39 43 44 51 52 58 58 52 48 50 58 62 56 57 55 52 56 59 61 65 69 74 76 70 59 52 59 68 70
43 47 49 49 49 42 41 37 39 43 45 44 49 56 52 44 44 46 54 58 58 57 62 68 64 61 52 49 46 46 45 42 49 57 60 60 64 76
46 49 54 53 49 44 44 42 37 35 38 45 55 48 46 42 46 49 49 49 56 61 59 58 46 46 47 48 47 45 44 46 52 60 74 80 87 90
47 54 51 50 48 46 40 41 44 46 47 52 42 40 41 43 47 47 52 54 54 46 42 55 50 54 53 52 56 64 72 72 65 61 63 67 78 85
58 61 57 49 42 40 43 45 48 51 48 40 37 42 43 46 47 46 49 51 53 54 48 52 50 55 68 82 74 44 50 55 63 63 68 81 86 88
57 62 58 56 49 46 41 42 50 49 40 37 39 44 47 48 44 39 42 51 52 59 48 46 59 64 67 61 57 57 64 68 70 67 78 85 86 86
41 41 44 44 45 42 40 38 42 38 33 42 49 51 44 26 27 34 29 33 36 45 46 46 54 60 57 70 73 65 69 75 77 80 86 86 81 80
37 33 33 30 34 31 33 36 34 32 38 39 43 32 15 22 25 32 39 46 45 48 53 56 57 49 55 64 76 70 71 69 69 76 85 88 92 85
35 36 37 35 37 33 33 28 26 23 32 39 23 15 23 30 39 43 48 48 49 49 39 29 35 42 49 58 76 78 68 74 71 80 88 94 95 85
36 37 39 33 25 18 17 13 18 25 28 29 26 22 28 37 42 44 39 44 41 33 26 27 33 39 53 57 64 65 62 69 77 83 94 97 92 80
31 31 24 14 11 12 16 19 19 22 23 19 21 28 39 41 43 35 32 31 33 40 41 37 34 40 51 69 73 60 62 71 80 88 100 100 95 83
14 16 16 14 12 19 15 15 17 20 23 28 28 32 40 41 32 25 30 30 36 39 42 47 51 45 59 61 55 59 63 71 80 90 99 95 102 91
17 17 18 12 17 16 13 14 14 16 16 22 33 42 42 35 21 27 30 31 36 38 40 52 32 47 57 64 65 56 60 69 78 94 89 86 94 93
21 20 17 14 18 24 24 25 31 32 33 38 40 40 28 14 23 28 26 33 35 39 47 46 37 50 51 54 61 64 49 58 71 87 88 85 81 70
14 13 15 23 28 28 29 31 33 35 37 34 12 8 10 17 26 25 24 30 33 40 49 36 49 50 46 47 60 63 59 54 64 69 74 70 70 74
14 9 20 29 25 25 26 31 33 31 26 15 12 15 19 19 23 19 29 28 34 42 47 44 50 40 38 43 56 56 62 72 74 64 60 40 48 48
16 19 21 23 25 29 30 27 26 21 11 12 16 21 25 21 15 25 28 24 35 36 40 51 45 37 31 38 50 50 60 71 87 77 68 40 25 27
Wind_Direction_500mb
203 210 215 204 207 213 250 241 279 274 270 303 323 286 265 271 281 286 292 304 305 313 314 308 312 306 301 304 305 300 292 291 290 287 285 282 280 279
227 224 202 206 206 220 234 233 263 271 256 278 281 294 292 285 291 287 288 293 292 295 312 304 306 306 299 299 305 301 298 296 294 289 286 284 281 278
228 227 224 200 213 231 231 229 252 256 247 258 266 274 292 293 311 309 296 285 279 284 291 297 292 295 290 290 296 294 292 296 299 296 294 288 283 280
229 231 231 232 231 232 228 227 243 246 261 275 270 281 274 282 300 304 313 298 294 287 282 293 297 295 292 289 289 288 287 293 291 293 297 293 286 283
235 235 234 236 235 224 223 227 235 251 265 273 283 299 286 280 278 287 288 293 292 286 279 280 288 288 280 285 289 287 293 292 288 284 289 296 288 280
235 239 242 238 235 232 240 241 249 262 277 276 282 293 300 297 284 281 285 287 287 286 289 293 285 277 275 276 281 280 280 280 283 283 286 288 281 284
233 236 238 245 244 242 247 250 256 261 265 277 289 295 297 293 286 287 289 295 297 298 297 294 292 281 281 282 283 283 286 284 284 282 283 283 282 280
239 236 237 241 242 243 248 253 261 272 272 284 292 295 294 293 295 294 296 302 303 307 310 302 299 295 294 294 294 291 298 290 288 284 278 279 278 278
248 238 237 245 248 250 256 264 266 273 274 289 294 292 293 297 298 292 298 299 300 306 305 305 307 306 313 310 298 294 287 280 275 278 283 279 280 279
253 242 241 252 251 252 262 273 274 278 284 293 289 295 294 292 288 290 294 297 300 303 306 303 309 304 300 298 298 292 289 287 287 284 293 287 286 287
245 241 247 247 253 260 269 271 273 276 289 287 290 295 290 290 290 286 291 293 294 304 302 300 300 297 297 302 308 307 312 310 305 296 295 303 300 293
249 245 245 255 260 263 269 273 276 285 283 281 289 291 292 292 294 287 298 293 292 295 302 298 299 307 313 312 317 314 317 320 316 305 305 307 303 293
245 249 250 248 262 263 270 276 281 284 285 293 296 294 294 291 296 287 285 289 295 297 307 303 306 307 302 308 319 318 317 320 316 311 310 306 305 295
243 240 245 254 254 267 279 289 286 291 304 308 303 297 283 291 276 288 295 300 302 301 302 302 301 299 303 306 313 315 316 320 321 323 321 313 307 297
237 247 250 261 272 274 286 295 298 310 322 326 316 295 294 289 285 292 293 296 296 301 306 306 309 307 302 300 308 312 315 318 320 325 323 318 311 308
244 258 266 269 272 293 294 285 303 309 316 319 318 305 296 298 301 303 302 306 312 318 327 325 314 309 307 309 316 312 317 316 320 323 324 320 314 310
248 245 249 253 286 289 289 282 298 311 311 304 290 279 292 300 305 308 314 319 320 324 324 327 323 314 315 317 316 314 322 321 324 326 325 321 316 313
230 230 241 268 288 298 275 273 291 295 291 285 282 287 302 310 314 319 318 318 322 321 325 332 328 317 316 319 324 322 323 325 326 326 325 320 314 316
246 242 259 262 284 258 278 286 271 271 257 258 280 292 300 302 308 313 315 319 321 322 330 334 316 330 334 328 328 331 327 329 330 324 327 322 314 320
238 256 271 249 230 261 274 279 280 276 276 284 292 295 292 291 306 305 312 322 321 326 333 334 318 331 331 328 327 334 338 336 336 335 328 323 319 326
211 243 220 222 248 257 264 277 282 281 287 295 297 316 310 303 305 309 317 320 322 334 336 337 335 325 320 333 339 340 347 343 346 340 337 334 339 335
210 217 210 224 239 253 269 287 294 292 290 294 288 297 304 295 309 320 322 318 332 337 336 329 335 328 313 338 348 344 347 351 355 353 349 340 347 341
226 240 256 265 273 282 293 291 293 299 286 277 266 280 286 290 311 316 318 323 337 333 338 337 338 339 312 344 356 350 353 2 9 1 359 354 337 332
Wind_Speed_850mb
22 27 38 28 27 20 17 23 17 16 14 10 11 10 16 17 21 27 29 38 47 46 48 39 32 32 35 36 36 37 39 44 46 48 48 49 49 48
23 22 31 33 34 21 18 19 17 19 24 16 19 19 19 24 32 40 40 41 44 41 40 40 40 41 44 45 41 42 41 38 40 46 51 54 54 53
31 28 28 32 39 32 27 21 20 24 27 22 22 28 34 32 33 30 34 40 44 43 40 36 42 49 53 53 52 46 44 44 47 44 44 49 53 54
37 31 37 37 34 29 37 35 28 21 25 29 34 39 34 31 41 39 36 40 45 46 45 42 48 46 49 51 52 54 57 59 51 52 48 48 48 48
40 40 35 33 41 36 34 34 34 29 32 38 45 41 48 47 38 42 44 43 51 41 32 45 53 53 53 56 54 50 53 53 54 56 60 64 55 53
48 46 41 36 34 37 38 34 32 35 40 45 41 49 47 48 50 43 42 43 52 55 62 57 52 52 56 50 46 50 55 61 63 65 73 67 58 58
49 49 46 43 40 41 41 37 40 39 43 44 51 52 58 58 52 48 50 58 62 56 57 55 52 56 59 61 65 69 74 76 70 59 52 59 68 70
43 47 49 49 49 42 41 37 39 43 45 44 49 56 52 44 44 46 54 58 58 57 62 68 64 61 52 49 46 46 45 42 49 57 60 60 64 76
46 49 54 53 49 44 44 42 37 35 38 45 55 48 46 42 46 49 49 49 56 61 59 58 46 46 47 48 47 45 44 46 52 60 74 80 87 90
47 54 51 50 48 46 40 41 44 46 47 52 42 40 41 43 47 47 52 54 54 46 42 55 50 54 53 52 56 64 72 72 65 61 63 67 78 85
58 61 57 49 42 40 43 45 48 51 48 40 37 42 43 46 47 46 49 51 53 54 48 52 50 55 68 82 74 44 50 55 63 63 68 81 86 88
57 62 58 56 49 46 41 42 50 49 40 37 39 44 47 48 44 39 42 51 52 59 48 46 59 64 67 61 57 57 64 68 70 67 78 85 86 86
41 41 44 44 45 42 40 38 42 38 33 42 49 51 44 26 27 34 29 33 36 45 46 46 54 60 57 70 73 65 69 75 77 80 86 86 81 80
37 33 33 30 34 31 33 36 34 32 38 39 43 32 15 22 25 32 39 46 45 48 53 56 57 49 55 64 76 70 71 69 69 76 85 88 92 85
35 36 37 35 37 33 33 28 26 23 32 39 23 15 23 30 39 43 48 48 49 49 39 29 35 42 49 58 76 78 68 74 71 80 88 94 95 85
36 37 39 33 25 18 17 13 18 25 28 29 26 22 28 37 42 44 39 44 41 33 26 27 33 39 53 57 64 65 62 69 77 83 94 97 92 80
31 31 24 14 11 12 16 19 19 22 23 19 21 28 39 41 43 35 32 31 33 40 41 37 34 40 51 69 73 60 62 71 80 88 100 100 95 83
14 16 16 14 12 19 15 15 17 20 23 28 28 32 40 41 32 25 30 30 36 39 42 47 51 45 59 61 55 59 63 71 80 90 99 95 102 91
17 17 18 12 17 16 13 14 14 16 16 22 33 42 42 35 21 27 30 31 36 38 40 52 32 47 57 64 65 56 60 69 78 94 89 86 94 93
21 20 17 14 18 24 24 25 31 32 33 38 40 40 28 14 23 28 26 33 35 39 47 46 37 50 51 54 61 64 49 58 71 87 88 85 81 70
14 13 15 23 28 28 29 31 33 35 37 34 12 8 10 17 26 25 24 30 33 40 49 36 49 50 46 47 60 63 59 54 64 69 74 70 70 74
14 9 20 29 25 25 26 31 33 31 26 15 12 15 19 19 23 19 29 28 34 42 47 44 50 40 38 43 56 56 62 72 74 64 60 40 48 48
16 19 21 23 25 29 30 27 26 21 11 12 16 21 25 21 15 25 28 24 35 36 40 51 45 37 31 38 50 50 60 71 87 77 68 40 25 27
Wind_Direction_850mb
203 210 215 204 207 213 250 241 279 274 270 303 323 286 265 271 281 286 292 304 305 313 314 308 312 306 301 304 305 300 292 291 290 287 285 282 280 279
227 224 202 206 206 220 234 233 263 271 256 278 281 294 292 285 291 287 288 293 292 295 312 304 306 306 299 299 305 301 298 296 294 289 286 284 281 278
228 227 224 200 213 231 231 229 252 256 247 258 266 274 292 293 311 309 296 285 279 284 291 297 292 295 290 290 296 294 292 296 299 296 294 288 283 280
229 231 231 232 231 232 228 227 243 246 261 275 270 281 274 282 300 304 313 298 294 287 282 293 297 295 292 289 289 288 287 293 291 293 297 293 286 283
235 235 234 236 235 224 223 227 235 251 265 273 283 299 286 280 278 287 288 293 292 286 279 280 288 288 280 285 289 287 293 292 288 284 289 296 288 280
235 239 242 238 235 232 240 241 249 262 277 276 282 293 300 297 284 281 285 287 287 286 289 293 285 277 275 276 281 280 280 280 283 283 286 288 281 284
233 236 238 245 244 242 247 250 256 261 265 277 289 295 297 293 286 287 289 295 297 298 297 294 292 281 281 282 283 283 286 284 284 282 283 283 282 280
239 236 237 241 242 243 248 253 261 272 272 284 292 295 294 293 295 294 296 302 303 307 310 302 299 295 294 294 294 291 298 290 288 284 278 279 278 278
248 238 237 245 248 250 256 264 266 273 274 289 294 292 293 297 298 292 298 299 300 306 305 305 307 306 313 310 298 294 287 280 275 278 283 279 280 279
253 242 241 252 251 252 262 273 274 278 284 293 289 295 294 292 288 290 294 297 300 303 306 303 309 304 300 298 298 292 289 287 287 284 293 287 286 287
245 241 247 247 253 260 269 271 273 276 289 287 290 295 290 290 290 286 291 293 294 304 302 300 300 297 297 302 308 307 312 310 305 296 295 303 300 293
249 245 245 255 260 263 269 273 276 285 283 281 289 291 292 292 294 287 298 293 292 295 302 298 299 307 313 312 317 314 317 320 316 305 305 307 303 293
245 249 250 248 262 263 270 276 281 284 285 293 296 294 294 291 296 287 285 289 295 297 307 303 306 307 302 308 319 318 317 320 316 311 310 306 305 295
243 240 245 254 254 267 279 289 286 291 304 308 303 297 283 291 276 288 295 300 302 301 302 302 301 299 303 306 313 315 316 320 321 323 321 313 307 297
237 247 250 261 272 274 286 295 298 310 322 326 316 295 294 289 285 292 293 296 296 301 306 306 309 307 302 300 308 312 315 318 320 325 323 318 311 308
244 258 266 269 272 293 294 285 303 309 316 319 318 305 296 298 301 303 302 306 312 318 327 325 314 309 307 309 316 312 317 316 320 323 324 320 314 310
248 245 249 253 286 289 289 282 298 311 311 304 290 279 292 300 305 308 314 319 320 324 324 327 323 314 315 317 316 314 322 321 324 326 325 321 316 313
230 230 241 268 288 298 275 273 291 295 291 285 282 287 302 310 314 319 318 318 322 321 325 332 328 317 316 319 324 322 323 325 326 326 325 320 314 316
246 242 259 262 284 258 278 286 271 271 257 258 280 292 300 302 308 313 315 319 321 322 330 334 316 330 334 328 328 331 327 329 330 324 327 322 314 320
238 256 271 249 230 261 274 279 280 276 276 284 292 295 292 291 306 305 312 322 321 326 333 334 318 331 331 328 327 334 338 336 336 335 328 323 319 326
211 243 220 222 248 257 264 277 282 281 287 295 297 316 310 303 305 309 317 320 322 334 336 337 335 325 320 333 339 340 347 343 346 340 337 334 339 335
210 217 210 224 239 253 269 287 294 292 290 294 288 297 304 295 309 320 322 318 332 337 336 329 335 328 313 338 348 344 347 351 355 353 349 340 347 341
226 240 256 265 273 282 293 291 293 299 286 277 266 280 286 290 311 316 318 323 337 333 338 337 338 339 312 344 356 350 353 2 9 1 359 354 337 332